"Pseudo-MPEC" for ZKA8FC6

Created 2018 May 20 16:18:32 UT using Find_Orb

Click here for an explanation of pseudo-MPECs

 
 Astrometry: 
     ZKA8FC6  C2018 05 17.42150 21 08 02.73 +02 09 11.3          21.1 GUNEOCPG96
     ZKA8FC6  C2018 05 17.42627 21 08 02.76 +02 09 15.3          21.3 GUNEOCPG96
     ZKA8FC6  C2018 05 17.43105 21 08 02.82 +02 09 19.0          21.2 GUNEOCPG96
     ZKA8FC6  C2018 05 17.44449 21 08 02.90 +02 09 28.4          21.2 GUNEOCPG96
     ZKA8FC6  C2018 05 17.44979 21 08 03.01 +02 09 32.2                UNEOCPG96
     ZKA8FC6  C2018 05 17.45501 21 08 03.08 +02 09 35.6                UNEOCPG96
     ZKA8FC6  C2018 05 17.46064 21 08 03.23 +02 09 40.0          21.3 GUNEOCPG96
     ZKA8FC6  C2018 05 18.37643 21 08 15.84 +02 20 35.5          20.1 GUNEOCPI52
     ZKA8FC6  C2018 05 18.38767 21 08 15.90 +02 20 43.5          21.3 GUNEOCPI52
     ZKA8FC6  C2018 05 18.39365 21 08 15.99 +02 20 48.8          20.9 GUNEOCPI52
     ZKA8FC6  C2018 05 19.39266 21 08 28.49 +02 32 42.5          21.7 GUNEOCPI52
     ZKA8FC6  C2018 05 19.39952 21 08 28.55 +02 32 46.7          21.8 GUNEOCPI52
     ZKA8FC6  C2018 05 19.41327 21 08 28.66 +02 32 56.8          22.0 GUNEOCPI52
     ZKA8FC6  C2018 05 20V=Astrometry^60r\I2$-ZZJ[DR6(];tVd-BGI1]1gI$1v:4.ruiH01
     ZKA8FC6  C2018 05 20RyJQQ:YhUTDta@AdQredacted;%O?YRwjN7X]/.L-Pm_DL'SZLMuH01
     ZKA8FC6  C2018 05 20FI_x(h=aA:,I+,nL20Z#s`*:dA`MjyKrseehB4c6@2u^si1+TEH1H01
     ZKA8FC6  C2018 05 20.38504 21 08 39.75 +02 44 30.8          21.9 GUNEOCPI52
     ZKA8FC6  C2018 05 20b;ryD@hsQ;aMO$cIk^-d'rI[=Km54bbjBa4bAW\Lrwy!VJGNEOCPH01
     ZKA8FC6  C2018 05 20.38919 21 08 39.73 +02 44 32.6          22.2 GUNEOCPI52
     ZKA8FC6  C2018 05 20.39334 21 08 39.77 +02 44 36.2          22.2 GUNEOCPI52
     ZKA8FC6  C2018 05 20.39749 21 08 39.83 +02 44 38.2          22.2 GUNEOCPI52

Station data:
(G96) Mt. Lemmon Survey  (N32.442754 W110.788720)  US/Arizona.  Observers E.
   J. Christensen, A. R. Gibbs, A. D. Grauer, R. E. Hill, J. A. Johnson, R.
   A. Kowalski, S. M. Larson, F. C. Shelly. 1.5-m reflector + CCD.
(H01) Magdalena Ridge Observatory, Socorro  (N33.985151 W107.189200)  US/New
   Mexico.  Observers W. H. Ryan, E. V. Ryan. Measurer W. H. Ryan. 2.4-m
   f/8.9 reflector + CCD.
(I52) Steward Observatory, Mt. Lemmon Station  (N32.442547 W110.788920)
   US/Arizona.

Orbital elements:  ZKA8FC6
   Perihelion 2017 Feb 13.719672 TT = 17:16:19 (JD 2457798.219672)
Epoch 2018 May 20.0 TT = JDT 2458258.5                        AutoNEOCP
M  98.11365                         (J2000 ecliptic)
n   0.21316064     Peri.  268.07588
a   2.77543690     Node   270.62264
e   0.2631720      Incl.   30.52971
P   4.62           H   16.2     G   0.15   q 2.04501954  Q 3.50585426
From 21 observations 2018 May 17-20; mean residual 0".45
Residuals in arcseconds: 
180517 G96  .87+  .50-    180518 I52  .93+  .21-    180520 H01  .05-  .08+    
180517 G96  .37+  .08+    180518 I52  .27-  .26-    180520 H01  .04-  .24+    
180517 G96  .31+  .35+    180518 I52  .03-  .76+    180520 I52  .60+  .74+    
180517 G96  1.2-  .11+    180519 I52  .10+  .33+    180520 H01  .33+  .09-    
180517 G96  .58-  .11+    180519 I52  .15-  .37-    180520 I52  .32-  .42-    
180517 G96  .57-  .24-    180519 I52  .79-  .10-    180520 I52  .34-  .23+    
180517 G96  .56+  .13+    180520 H01  .05-  .02+    180520 I52  .05-  .73-    

Ephemerides (geocentric):
Date (UTC) HH   RA              Dec         delta   r     elong  mag
---- -- -- --  ------------   ------------  ------ ------ -----  ---
2018 05 20 16  21 08 42.536   +02 47 52.29  2.7353 3.0516  98.4 21.7
2018 05 20 17  21 08 42.967   +02 48 21.96  2.7349 3.0517  98.4 21.7
2018 05 20 18  21 08 43.396   +02 48 51.62  2.7344 3.0518  98.4 21.7
2018 05 20 19  21 08 43.823   +02 49 21.28  2.7340 3.0518  98.5 21.7
2018 05 20 20  21 08 44.247   +02 49 50.94  2.7335 3.0519  98.5 21.7
2018 05 20 21  21 08 44.670   +02 50 20.60  2.7330 3.0520  98.5 21.7
2018 05 20 22  21 08 45.090   +02 50 50.25  2.7326 3.0521  98.6 21.7
2018 05 20 23  21 08 45.509   +02 51 19.90  2.7321 3.0522  98.6 21.7
2018 05 21 00  21 08 45.925   +02 51 49.55  2.7317 3.0523  98.6 21.7
2018 05 21 01  21 08 46.339   +02 52 19.19  2.7312 3.0524  98.7 21.7
2018 05 21 02  21 08 46.751   +02 52 48.84  2.7308 3.0525  98.7 21.7
2018 05 21 03  21 08 47.161   +02 53 18.47  2.7303 3.0526  98.7 21.7
2018 05 21 04  21 08 47.569   +02 53 48.11  2.7298 3.0527  98.8 21.7
2018 05 21 05  21 08 47.974   +02 54 17.74  2.7294 3.0528  98.8 21.7
2018 05 21 06  21 08 48.378   +02 54 47.37  2.7289 3.0529  98.8 21.7
2018 05 21 07  21 08 48.779   +02 55 17.00  2.7285 3.0530  98.9 21.7
2018 05 21 08  21 08 49.179   +02 55 46.62  2.7280 3.0531  98.9 21.7
2018 05 21 09  21 08 49.576   +02 56 16.24  2.7276 3.0532  98.9 21.7
2018 05 21 10  21 08 49.971   +02 56 45.85  2.7271 3.0533  99.0 21.7
2018 05 21 11  21 08 50.364   +02 57 15.47  2.7267 3.0534  99.0 21.7
2018 05 21 12  21 08 50.755   +02 57 45.08  2.7262 3.0535  99.0 21.7
2018 05 21 13  21 08 51.144   +02 58 14.69  2.7257 3.0536  99.1 21.7
2018 05 21 14  21 08 51.531   +02 58 44.29  2.7253 3.0537  99.1 21.7
2018 05 21 15  21 08 51.915   +02 59 13.89  2.7248 3.0538  99.1 21.7
2018 05 21 16  21 08 52.298   +02 59 43.49  2.7244 3.0538  99.2 21.7
2018 05 21 17  21 08 52.678   +03 00 13.09  2.7239 3.0539  99.2 21.7
2018 05 21 18  21 08 53.056   +03 00 42.68  2.7235 3.0540  99.2 21.7
2018 05 21 19  21 08 53.433   +03 01 12.27  2.7230 3.0541  99.3 21.7
2018 05 21 20  21 08 53.807   +03 01 41.85  2.7226 3.0542  99.3 21.7
2018 05 21 21  21 08 54.178   +03 02 11.43  2.7221 3.0543  99.3 21.7
2018 05 21 22  21 08 54.548   +03 02 41.01  2.7216 3.0544  99.4 21.7
2018 05 21 23  21 08 54.916   +03 03 10.59  2.7212 3.0545  99.4 21.7
2018 05 22 00  21 08 55.281   +03 03 40.16  2.7207 3.0546  99.4 21.7
2018 05 22 01  21 08 55.645   +03 04 09.73  2.7203 3.0547  99.5 21.7
2018 05 22 02  21 08 56.006   +03 04 39.30  2.7198 3.0548  99.5 21.7
2018 05 22 03  21 08 56.365   +03 05 08.86  2.7194 3.0549  99.5 21.7
2018 05 22 04  21 08 56.722   +03 05 38.42  2.7189 3.0550  99.6 21.7
2018 05 22 05  21 08 57.077   +03 06 07.97  2.7185 3.0551  99.6 21.7
2018 05 22 06  21 08 57.430   +03 06 37.53  2.7180 3.0552  99.6 21.7
2018 05 22 07  21 08 57.781   +03 07 07.08  2.7176 3.0553  99.7 21.7
2018 05 22 08  21 08 58.129   +03 07 36.62  2.7171 3.0554  99.7 21.7
2018 05 22 09  21 08 58.476   +03 08 06.17  2.7167 3.0555  99.7 21.7
2018 05 22 10  21 08 58.820   +03 08 35.71  2.7162 3.0556  99.8 21.7
2018 05 22 11  21 08 59.162   +03 09 05.24  2.7157 3.0557  99.8 21.7
2018 05 22 12  21 08 59.503   +03 09 34.78  2.7153 3.0557  99.8 21.7
2018 05 22 13  21 08 59.840   +03 10 04.31  2.7148 3.0558  99.9 21.7
2018 05 22 14  21 09 00.176   +03 10 33.83  2.7144 3.0559  99.9 21.7
2018 05 22 15  21 09 00.510   +03 11 03.35  2.7139 3.0560  99.9 21.7